Showing default

KINEIS-4E, 63300

Orbit data source: Space-Track

KINEIS-4E, 63300 is a French payload satellite in SSO that was launched on Tue, 18 Mar 2025 UTC via an ELECTRON launch vehicle from the Rocket Lab Launch Complex (RLLC). Payload-class satellites include a variety of spacecraft equipped with specific instruments for various scientific and technological missions. These include communications satellites like Starlink; space stations such as the ISS; scientific satellites like the Hubble; Earth observation satellites from companies like Planet Labs, Umbra, and HawkEye 360; GPS; miniature CubeSats for education and research; and military/defense satellites.

Loading next visibility...
Identifier
63300, 2025-056A
Orbit
SSO
Country
Flag of FRFR
Related business
Manufacturer
KINEIS
Mission
Operational Commercial Communications
Bus & Motor
CUBESAT 16U, Unknown motor
Mass
28 kg wet, 28 kg dry
Launch date (UTC)
2025-03-18 (6 months ago)
Launch vehicle
ELECTRON
Launch site
Rocket Lab Launch Complex (RLLC)
Object type
Payload
Rocket body
Debris
Shape & HBR
Box + 2 Pan + 1 Ant, 0.8 m
Radar Cross Section
0.229 m², Medium (>0.1 m² and < 1m²)

Expand to show TLE details & history
Last TLE update: 6 hours ago

TLE from 6 hours ago
0 KINEIS-4E
1 63300U 25056A   25260.99652641  .00002054  00000-0  33223-3 0  9994
2 63300  97.9924  25.0918 0002038  93.0515 267.0925 14.72379193 27078
Epoch: 2025-09-17T23:54Z
TLE epoch observation values (Epoch: 2025-09-17T23:54:59.881Z)
Latitude
-0.00011°
Longitude
29.17785°
Altitude
656.564 km
Speed
7.529 km/s
True Right ascension
01h 40m 22s
True Declination
0° 00' 00"
Sunlit
Object was in full shadow at epoch
Visualization orbit readout
Latitude
Unknown
Longitude
Unknown
Altitude
Unknown
Speed
Unknown
Apparent Right ascension
Unknown
Apparent Declination
Unknown
Sunlit
N/A
Visualization observer readout
Local Sidereal Time
22:43:49
Azimuth
Unknown
Elevation
Unknown
Doppler factor
Unknown
Orbital elements
Apogee altitude
651.971 km
Perigee altitude
649.106 km
Semi-major axis
7,028.675 km
Eccentricity
0.0002
Inclination
97.9924°
RAAN
25.0918°
Arg. of periapsis
93.0515°
True anomaly
267.06918°
Mean anomaly
267.0925°
Eccentric anomaly
267.08084°
Mean motion
3.68326 °/min
Orbital period
97.74 mins
BSTAR
0.00033223
Loading maneuver chart data...
Computing Atmospheric mass density...
Loading historical data...
Loading historical data...
Loading historical data...
Loading historical data...
Loading historical data...
Loading historical data...
Loading historical data...

Documentation

Showing up to 5 results
|